AMOS-17

Last updated on Thu Jul 03 2025 00:02:48 GMT+0000 (Coordinated Universal Time)

1 44479U 19050A 25183.56996663 .00000117 00000+0 00000+0 0 9999 2 44479 0.0168 343.7759 0002130 124.6945 34.5384 1.00272694 21685
UTC large
Height (km)
Speed (km/s)
/
Latitude / Longitude
Inclination (degrees)
Orbital Period (minutes)
Azimuth
Elevation
Range (km)
Doppler Factor

Next 0 passes for location: London (51.5072 / 0.1276)

Sorry there are no passes over London.